Year,Month,Day,Hour,Minute,Value (Times are PST for temperature in C)
2008,09,23,00,00,9.10
2008,09,23,00,01,9.10
2008,09,23,00,02,9.10
2008,09,23,00,03,9.10
2008,09,23,00,04,9.10
2008,09,23,00,05,9.10
2008,09,23,00,06,9.10
2008,09,23,00,07,9.10
2008,09,23,00,08,9.00
2008,09,23,00,09,8.90
2008,09,23,00,10,8.80
2008,09,23,00,11,8.80
2008,09,23,00,12,8.80
2008,09,23,00,13,8.70
2008,09,23,00,14,8.70
2008,09,23,00,15,8.60
2008,09,23,00,16,8.60
2008,09,23,00,17,8.60
2008,09,23,00,18,8.60
2008,09,23,00,19,8.60
2008,09,23,00,20,8.60
2008,09,23,00,21,8.60
2008,09,23,00,22,8.60
2008,09,23,00,23,8.60
2008,09,23,00,24,8.60
2008,09,23,00,25,8.60
2008,09,23,00,26,8.60
2008,09,23,00,27,8.60
2008,09,23,00,28,8.60
2008,09,23,00,29,8.50
2008,09,23,00,30,8.50
2008,09,23,00,31,8.40
2008,09,23,00,32,8.40
2008,09,23,00,33,8.30
2008,09,23,00,34,8.30
2008,09,23,00,35,8.30
2008,09,23,00,36,8.20
2008,09,23,00,37,8.10
2008,09,23,00,38,8.10
2008,09,23,00,39,8.00
2008,09,23,00,40,7.90
2008,09,23,00,41,7.90
2008,09,23,00,42,7.80
2008,09,23,00,43,7.80
2008,09,23,00,44,7.80
2008,09,23,00,45,7.70
2008,09,23,00,46,7.70
2008,09,23,00,47,7.70
2008,09,23,00,48,7.60
2008,09,23,00,49,7.60
2008,09,23,00,50,7.60
2008,09,23,00,51,7.50
2008,09,23,00,52,7.40
2008,09,23,00,53,7.30
2008,09,23,00,54,7.30
2008,09,23,00,55,7.20
2008,09,23,00,56,7.20
2008,09,23,00,57,7.10
2008,09,23,00,58,7.10
2008,09,23,00,59,7.00
2008,09,23,01,00,7.00
2008,09,23,01,01,6.90
2008,09,23,01,02,6.90
2008,09,23,01,03,6.90
2008,09,23,01,04,6.80
2008,09,23,01,05,6.80
2008,09,23,01,06,6.70
2008,09,23,01,07,6.70
2008,09,23,01,08,6.70
2008,09,23,01,09,6.60
2008,09,23,01,10,6.50
2008,09,23,01,11,6.50
2008,09,23,01,12,6.40
2008,09,23,01,13,6.30
2008,09,23,01,14,6.30
2008,09,23,01,15,6.20
2008,09,23,01,16,6.20
2008,09,23,01,17,6.20
2008,09,23,01,18,6.10
2008,09,23,01,19,6.10
2008,09,23,01,20,6.10
2008,09,23,01,21,6.00
2008,09,23,01,22,6.00
2008,09,23,01,23,6.00
2008,09,23,01,24,5.90
2008,09,23,01,25,5.90
2008,09,23,01,26,5.90
2008,09,23,01,27,5.90
2008,09,23,01,28,5.90
2008,09,23,01,29,5.90
2008,09,23,01,30,5.90
2008,09,23,01,31,5.90
2008,09,23,01,32,5.90
2008,09,23,01,33,5.90
2008,09,23,01,34,5.90
2008,09,23,01,35,5.90
2008,09,23,01,36,5.90
2008,09,23,01,37,5.90
2008,09,23,01,38,5.90
2008,09,23,01,39,5.80
2008,09,23,01,40,5.80
2008,09,23,01,41,5.70
2008,09,23,01,42,5.70
2008,09,23,01,43,5.70
2008,09,23,01,44,5.60
2008,09,23,01,45,5.60
2008,09,23,01,46,5.60
2008,09,23,01,47,5.60
2008,09,23,01,48,5.60
2008,09,23,01,49,5.60
2008,09,23,01,50,5.60
2008,09,23,01,51,5.50
2008,09,23,01,52,5.50
2008,09,23,01,53,5.50
2008,09,23,01,54,5.40
2008,09,23,01,55,5.40
2008,09,23,01,56,5.40
2008,09,23,01,57,5.40
2008,09,23,01,58,5.30
2008,09,23,01,59,5.30
2008,09,23,02,00,5.30
2008,09,23,02,01,5.30
2008,09,23,02,02,5.30
2008,09,23,02,03,5.30
2008,09,23,02,04,5.30
2008,09,23,02,05,5.20
2008,09,23,02,06,5.20
2008,09,23,02,07,5.20
2008,09,23,02,08,5.20
2008,09,23,02,09,5.20
2008,09,23,02,10,5.10
2008,09,23,02,11,5.10
2008,09,23,02,12,5.10
2008,09,23,02,13,5.10
2008,09,23,02,14,5.10
2008,09,23,02,15,5.00
2008,09,23,02,16,5.00
2008,09,23,02,17,5.00
2008,09,23,02,18,4.90
2008,09,23,02,19,4.90
2008,09,23,02,20,4.80
2008,09,23,02,21,4.80
2008,09,23,02,22,4.80
2008,09,23,02,23,4.80
2008,09,23,02,24,4.70
2008,09,23,02,25,4.70
2008,09,23,02,26,4.70
2008,09,23,02,27,4.70
2008,09,23,02,28,4.70
2008,09,23,02,29,4.80
2008,09,23,02,30,4.80
2008,09,23,02,31,4.80
2008,09,23,02,32,4.80
2008,09,23,02,33,4.80
2008,09,23,02,34,4.70
2008,09,23,02,35,4.70
2008,09,23,02,36,4.70
2008,09,23,02,37,4.70
2008,09,23,02,38,4.60
2008,09,23,02,39,4.60
2008,09,23,02,40,4.60
2008,09,23,02,41,4.50
2008,09,23,02,42,4.50
2008,09,23,02,43,4.40
2008,09,23,02,44,4.40
2008,09,23,02,45,4.40
2008,09,23,02,46,4.40
2008,09,23,02,47,4.40
2008,09,23,02,48,4.30
2008,09,23,02,49,4.30
2008,09,23,02,50,4.30
2008,09,23,02,51,4.30
2008,09,23,02,52,4.30
2008,09,23,02,53,4.30
2008,09,23,02,54,4.30
2008,09,23,02,55,4.30
2008,09,23,02,56,4.30
2008,09,23,02,57,4.30
2008,09,23,02,58,4.30
2008,09,23,02,59,4.30
2008,09,23,03,00,4.30
2008,09,23,03,01,4.30
2008,09,23,03,02,4.30
2008,09,23,03,03,4.30
2008,09,23,03,04,4.30
2008,09,23,03,05,4.30
2008,09,23,03,06,4.30
2008,09,23,03,07,4.30
2008,09,23,03,08,4.30
2008,09,23,03,09,4.30
2008,09,23,03,10,4.30
2008,09,23,03,11,4.30
2008,09,23,03,12,4.30
2008,09,23,03,13,4.20
2008,09,23,03,14,4.20
2008,09,23,03,15,4.20
2008,09,23,03,16,4.10
2008,09,23,03,17,4.00
2008,09,23,03,18,4.00
2008,09,23,03,19,3.90
2008,09,23,03,20,3.90
2008,09,23,03,21,3.80
2008,09,23,03,22,3.80
2008,09,23,03,23,3.80
2008,09,23,03,24,3.80
2008,09,23,03,25,3.80
2008,09,23,03,26,3.80
2008,09,23,03,27,3.80
2008,09,23,03,28,3.80
2008,09,23,03,29,3.80
2008,09,23,03,30,3.80
2008,09,23,03,31,3.80
2008,09,23,03,32,3.80
2008,09,23,03,33,3.80
2008,09,23,03,34,3.80
2008,09,23,03,35,3.80
2008,09,23,03,36,3.80
2008,09,23,03,37,3.80
2008,09,23,03,38,3.80
2008,09,23,03,39,3.80
2008,09,23,03,40,3.80
2008,09,23,03,41,3.80
2008,09,23,03,42,3.80
2008,09,23,03,43,3.80
2008,09,23,03,44,3.80
2008,09,23,03,45,3.80
2008,09,23,03,46,3.80
2008,09,23,03,47,3.70
2008,09,23,03,48,3.70
2008,09,23,03,49,3.70
2008,09,23,03,50,3.70
2008,09,23,03,51,3.70
2008,09,23,03,52,3.60
2008,09,23,03,53,3.60
2008,09,23,03,54,3.60
2008,09,23,03,55,3.50
2008,09,23,03,56,3.50
2008,09,23,03,57,3.50
2008,09,23,03,58,3.40
2008,09,23,03,59,3.40
2008,09,23,04,00,3.40
2008,09,23,04,01,3.40
2008,09,23,04,02,3.40
2008,09,23,04,03,3.40
2008,09,23,04,04,3.30
2008,09,23,04,05,3.30
2008,09,23,04,06,3.30
2008,09,23,04,07,3.30
2008,09,23,04,08,3.30
2008,09,23,04,09,3.30
2008,09,23,04,10,3.30
2008,09,23,04,11,3.30
2008,09,23,04,12,3.30
2008,09,23,04,13,3.30
2008,09,23,04,14,3.30
2008,09,23,04,15,3.30
2008,09,23,04,16,3.30
2008,09,23,04,17,3.30
2008,09,23,04,18,3.30
2008,09,23,04,19,3.30
2008,09,23,04,20,3.30
2008,09,23,04,21,3.40
2008,09,23,04,22,3.40
2008,09,23,04,23,3.40
2008,09,23,04,24,3.40
2008,09,23,04,25,3.40
2008,09,23,04,26,3.40
2008,09,23,04,27,3.40
2008,09,23,04,28,3.40
2008,09,23,04,29,3.40
2008,09,23,04,30,3.40
2008,09,23,04,31,3.40
2008,09,23,04,32,3.40
2008,09,23,04,33,3.40
2008,09,23,04,34,3.40
2008,09,23,04,35,3.40
2008,09,23,04,36,3.40
2008,09,23,04,37,3.40
2008,09,23,04,38,3.40
2008,09,23,04,39,3.40
2008,09,23,04,40,3.40
2008,09,23,04,41,3.40
2008,09,23,04,42,3.40
2008,09,23,04,43,3.40
2008,09,23,04,44,3.30
2008,09,23,04,45,3.30
2008,09,23,04,46,3.30
2008,09,23,04,47,3.20
2008,09,23,04,48,3.20
2008,09,23,04,49,3.10
2008,09,23,04,50,3.10
2008,09,23,04,51,3.10
2008,09,23,04,52,3.00
2008,09,23,04,53,3.00
2008,09,23,04,54,3.00
2008,09,23,04,55,3.00
2008,09,23,04,56,3.00
2008,09,23,04,57,3.00
2008,09,23,04,58,3.00
2008,09,23,04,59,3.00
2008,09,23,05,00,3.00
2008,09,23,05,01,3.00
2008,09,23,05,02,3.00
2008,09,23,05,03,2.90
2008,09,23,05,04,2.90
2008,09,23,05,05,2.90
2008,09,23,05,06,2.90
2008,09,23,05,07,2.90
2008,09,23,05,08,2.90
2008,09,23,05,09,2.90
2008,09,23,05,10,2.90
2008,09,23,05,11,2.90
2008,09,23,05,12,2.90
2008,09,23,05,13,2.90
2008,09,23,05,14,2.90
2008,09,23,05,15,2.90
2008,09,23,05,16,2.90
2008,09,23,05,17,2.90
2008,09,23,05,18,2.90
2008,09,23,05,19,2.90
2008,09,23,05,20,2.90
2008,09,23,05,21,2.90
2008,09,23,05,22,2.90
2008,09,23,05,23,2.90
2008,09,23,05,24,2.80
2008,09,23,05,25,2.80
2008,09,23,05,26,2.80
2008,09,23,05,27,2.70
2008,09,23,05,28,2.70
2008,09,23,05,29,2.60
2008,09,23,05,30,2.60
2008,09,23,05,31,2.60
2008,09,23,05,32,2.60
2008,09,23,05,33,2.60
2008,09,23,05,34,2.60
2008,09,23,05,35,2.70
2008,09,23,05,36,2.70
2008,09,23,05,37,2.60
2008,09,23,05,38,2.60
2008,09,23,05,39,2.60
2008,09,23,05,40,2.60
2008,09,23,05,41,2.50
2008,09,23,05,42,2.50
2008,09,23,05,43,2.50
2008,09,23,05,44,2.40
2008,09,23,05,45,2.40
2008,09,23,05,46,2.40
2008,09,23,05,47,2.40
2008,09,23,05,48,2.40
2008,09,23,05,49,2.40
2008,09,23,05,50,2.40
2008,09,23,05,51,2.30
2008,09,23,05,52,2.40
2008,09,23,05,53,2.40
2008,09,23,05,54,2.40
2008,09,23,05,55,2.50
2008,09,23,05,56,2.50
2008,09,23,05,57,2.60
2008,09,23,05,58,2.60
2008,09,23,05,59,2.70
2008,09,23,06,00,2.70
2008,09,23,06,01,2.70
2008,09,23,06,02,2.70
2008,09,23,06,03,2.80
2008,09,23,06,04,2.80
2008,09,23,06,05,2.80
2008,09,23,06,06,2.80
2008,09,23,06,07,2.70
2008,09,23,06,08,2.60
2008,09,23,06,09,2.60
2008,09,23,06,10,2.50
2008,09,23,06,11,2.40
2008,09,23,06,12,2.40
2008,09,23,06,13,2.40
2008,09,23,06,14,2.30
2008,09,23,06,15,2.30
2008,09,23,06,16,2.30
2008,09,23,06,17,2.30
2008,09,23,06,18,2.30
2008,09,23,06,19,2.30
2008,09,23,06,20,2.30
2008,09,23,06,21,2.30
2008,09,23,06,22,2.30
2008,09,23,06,23,2.30
2008,09,23,06,24,2.30
2008,09,23,06,25,2.30
2008,09,23,06,26,2.30
2008,09,23,06,27,2.30
2008,09,23,06,28,2.20
2008,09,23,06,29,2.20
2008,09,23,06,30,2.20
2008,09,23,06,31,2.20
2008,09,23,06,32,2.20
2008,09,23,06,33,2.20
2008,09,23,06,34,2.20
2008,09,23,06,35,2.20
2008,09,23,06,36,2.20
2008,09,23,06,37,2.20
2008,09,23,06,38,2.20
2008,09,23,06,39,2.20
2008,09,23,06,40,2.20
2008,09,23,06,41,2.30
2008,09,23,06,42,2.30
2008,09,23,06,43,2.30
2008,09,23,06,44,2.30
2008,09,23,06,45,2.40
2008,09,23,06,46,2.40
2008,09,23,06,47,2.40
2008,09,23,06,48,2.40
2008,09,23,06,49,2.40
2008,09,23,06,50,2.40
2008,09,23,06,51,2.40
2008,09,23,06,52,2.40
2008,09,23,06,53,2.40
2008,09,23,06,54,2.40
2008,09,23,06,55,2.40
2008,09,23,06,56,2.50
2008,09,23,06,57,2.50
2008,09,23,06,58,2.40
2008,09,23,06,59,2.40
2008,09,23,07,00,2.40
2008,09,23,07,01,2.30
2008,09,23,07,02,2.30
2008,09,23,07,03,2.30
2008,09,23,07,04,2.20
2008,09,23,07,05,2.20
2008,09,23,07,06,2.10
2008,09,23,07,07,2.10
2008,09,23,07,08,2.10
2008,09,23,07,09,2.10
2008,09,23,07,10,2.10
2008,09,23,07,11,2.10
2008,09,23,07,12,2.10
2008,09,23,07,13,2.10
2008,09,23,07,14,2.10
2008,09,23,07,15,2.10
2008,09,23,07,16,2.20
2008,09,23,07,17,2.20
2008,09,23,07,18,2.20
2008,09,23,07,19,2.30
2008,09,23,07,20,2.30
2008,09,23,07,21,2.30
2008,09,23,07,22,2.40
2008,09,23,07,23,2.50
2008,09,23,07,24,2.60
2008,09,23,07,25,2.60
2008,09,23,07,26,2.70
2008,09,23,07,27,2.70
2008,09,23,07,28,2.70
2008,09,23,07,29,2.70
2008,09,23,07,30,2.70
2008,09,23,07,31,2.70
2008,09,23,07,32,2.70
2008,09,23,07,33,2.70
2008,09,23,07,34,2.70
2008,09,23,07,35,2.70
2008,09,23,07,36,2.70
2008,09,23,07,37,2.70
2008,09,23,07,38,2.70
2008,09,23,07,39,2.70
2008,09,23,07,40,2.80
2008,09,23,07,41,2.80
2008,09,23,07,42,2.80
2008,09,23,07,43,2.80
2008,09,23,07,44,2.80
2008,09,23,07,45,2.90
2008,09,23,07,46,2.90
2008,09,23,07,47,2.90
2008,09,23,07,48,2.90
2008,09,23,07,49,2.90
2008,09,23,07,50,2.90
2008,09,23,07,51,3.00
2008,09,23,07,52,3.00
2008,09,23,07,53,3.10
2008,09,23,07,54,3.10
2008,09,23,07,55,3.10
2008,09,23,07,56,3.10
2008,09,23,07,57,3.20
2008,09,23,07,58,3.20
2008,09,23,07,59,3.20
2008,09,23,08,00,3.20
2008,09,23,08,01,3.20
2008,09,23,08,02,3.30
2008,09,23,08,03,3.30
2008,09,23,08,04,3.40
2008,09,23,08,05,3.40
2008,09,23,08,06,3.50
2008,09,23,08,07,3.60
2008,09,23,08,08,3.60
2008,09,23,08,09,3.70
2008,09,23,08,10,3.80
2008,09,23,08,11,3.90
2008,09,23,08,12,4.00
2008,09,23,08,13,4.00
2008,09,23,08,14,4.10
2008,09,23,08,15,4.20
2008,09,23,08,16,4.20
2008,09,23,08,17,4.30
2008,09,23,08,18,4.30
2008,09,23,08,19,4.40
2008,09,23,08,20,4.40
2008,09,23,08,21,4.50
2008,09,23,08,22,4.50
2008,09,23,08,23,4.60
2008,09,23,08,24,4.60
2008,09,23,08,25,4.60
2008,09,23,08,26,4.70
2008,09,23,08,27,4.70
2008,09,23,08,28,4.80
2008,09,23,08,29,4.90
2008,09,23,08,30,5.00
2008,09,23,08,31,5.10
2008,09,23,08,32,5.20
2008,09,23,08,33,5.30
2008,09,23,08,34,5.30
2008,09,23,08,35,5.30
2008,09,23,08,36,5.30
2008,09,23,08,37,5.40
2008,09,23,08,38,5.40
2008,09,23,08,39,5.40
2008,09,23,08,40,5.50
2008,09,23,08,41,5.50
2008,09,23,08,42,5.60
2008,09,23,08,43,5.60
2008,09,23,08,44,5.70
2008,09,23,08,45,5.70
2008,09,23,08,46,5.80
2008,09,23,08,47,5.90
2008,09,23,08,48,6.00
2008,09,23,08,49,6.00
2008,09,23,08,50,6.10
2008,09,23,08,51,6.20
2008,09,23,08,52,6.30
2008,09,23,08,53,6.40
2008,09,23,08,54,6.50
2008,09,23,08,55,6.60
2008,09,23,08,56,6.80
2008,09,23,08,57,6.90
2008,09,23,08,58,7.10
2008,09,23,08,59,7.30
2008,09,23,09,00,7.50
2008,09,23,09,01,7.70
2008,09,23,09,02,7.80
2008,09,23,09,03,8.00
2008,09,23,09,04,8.20
2008,09,23,09,05,8.40
2008,09,23,09,06,8.50
2008,09,23,09,07,8.70
2008,09,23,09,08,8.80
2008,09,23,09,09,8.90
2008,09,23,09,10,9.10
2008,09,23,09,11,9.20
2008,09,23,09,12,9.40
2008,09,23,09,13,9.50
2008,09,23,09,14,9.60
2008,09,23,09,15,9.70
2008,09,23,09,16,9.80
2008,09,23,09,17,9.90
2008,09,23,09,18,10.00
2008,09,23,09,19,10.10
2008,09,23,09,20,10.20
2008,09,23,09,21,10.30
2008,09,23,09,22,10.30
2008,09,23,09,23,10.30
2008,09,23,09,24,10.30
2008,09,23,09,25,10.30
2008,09,23,09,26,10.40
2008,09,23,09,27,10.40
2008,09,23,09,28,10.40
2008,09,23,09,29,10.40
2008,09,23,09,30,10.40
2008,09,23,09,31,10.40
2008,09,23,09,32,10.40
2008,09,23,09,33,10.50
2008,09,23,09,34,10.50
2008,09,23,09,35,10.60
2008,09,23,09,36,10.60
2008,09,23,09,37,10.80
2008,09,23,09,38,10.80
2008,09,23,09,39,10.90
2008,09,23,09,40,10.90
2008,09,23,09,41,11.00
2008,09,23,09,42,11.10
2008,09,23,09,43,11.20
2008,09,23,09,44,11.30
2008,09,23,09,45,11.30
2008,09,23,09,46,11.50
2008,09,23,09,47,11.50
2008,09,23,09,48,11.60
2008,09,23,09,49,11.60
2008,09,23,09,50,11.60
2008,09,23,09,51,11.60
2008,09,23,09,52,11.70
2008,09,23,09,53,11.70
2008,09,23,09,54,11.80
2008,09,23,09,55,11.90
2008,09,23,09,56,12.00
2008,09,23,09,57,12.00
2008,09,23,09,58,12.00
2008,09,23,09,59,12.00
2008,09,23,10,00,12.00
2008,09,23,10,01,12.10
2008,09,23,10,02,12.10
2008,09,23,10,03,12.10
2008,09,23,10,04,12.10
2008,09,23,10,05,12.00
2008,09,23,10,06,12.00
2008,09,23,10,07,11.90
2008,09,23,10,08,11.80
2008,09,23,10,09,11.80
2008,09,23,10,10,11.70
2008,09,23,10,11,11.70
2008,09,23,10,12,11.70
2008,09,23,10,13,11.70
2008,09,23,10,14,11.60
2008,09,23,10,15,11.60
2008,09,23,10,16,11.50
2008,09,23,10,17,11.50
2008,09,23,10,18,11.50
2008,09,23,10,19,11.60
2008,09,23,10,20,11.60
2008,09,23,10,21,11.60
2008,09,23,10,22,11.70
2008,09,23,10,23,11.70
2008,09,23,10,24,11.70
2008,09,23,10,25,11.80
2008,09,23,10,26,11.80
2008,09,23,10,27,11.90
2008,09,23,10,28,11.90
2008,09,23,10,29,11.90
2008,09,23,10,30,11.80
2008,09,23,10,31,11.80
2008,09,23,10,32,11.90
2008,09,23,10,33,11.90
2008,09,23,10,34,11.90
2008,09,23,10,35,11.90
2008,09,23,10,36,11.90
2008,09,23,10,37,11.90
2008,09,23,10,38,11.90
2008,09,23,10,39,11.90
2008,09,23,10,40,11.90
2008,09,23,10,41,12.00
2008,09,23,10,42,12.00
2008,09,23,10,43,12.00
2008,09,23,10,44,12.10
2008,09,23,10,45,12.10
2008,09,23,10,46,12.10
2008,09,23,10,47,12.10
2008,09,23,10,48,12.10
2008,09,23,10,49,12.20
2008,09,23,10,50,12.20
2008,09,23,10,51,12.20
2008,09,23,10,52,12.20
2008,09,23,10,53,12.20
2008,09,23,10,54,12.10
2008,09,23,10,55,12.10
2008,09,23,10,56,12.10
2008,09,23,10,57,12.20
2008,09,23,10,58,12.20
2008,09,23,10,59,12.20
2008,09,23,11,00,12.10
2008,09,23,11,01,12.10
2008,09,23,11,02,12.10
2008,09,23,11,03,12.10
2008,09,23,11,04,12.10
2008,09,23,11,05,12.20
2008,09,23,11,06,12.20
2008,09,23,11,07,12.20
2008,09,23,11,08,12.20
2008,09,23,11,09,12.10
2008,09,23,11,10,12.10
2008,09,23,11,11,12.10
2008,09,23,11,12,12.10
2008,09,23,11,13,12.20
2008,09,23,11,14,12.20
2008,09,23,11,15,12.20
2008,09,23,11,16,12.20
2008,09,23,11,17,12.30
2008,09,23,11,18,12.40
2008,09,23,11,19,12.50
2008,09,23,11,20,12.50
2008,09,23,11,21,12.50
2008,09,23,11,22,12.60
2008,09,23,11,23,12.60
2008,09,23,11,24,12.60
2008,09,23,11,25,12.70
2008,09,23,11,26,12.70
2008,09,23,11,27,12.70
2008,09,23,11,28,12.80
2008,09,23,11,29,12.80
2008,09,23,11,30,12.80
2008,09,23,11,31,12.80
2008,09,23,11,32,12.80
2008,09,23,11,33,12.80
2008,09,23,11,34,12.80
2008,09,23,11,35,12.90
2008,09,23,11,36,13.00
2008,09,23,11,37,13.00
2008,09,23,11,38,13.10
2008,09,23,11,39,13.20
2008,09,23,11,40,13.20
2008,09,23,11,41,13.30
2008,09,23,11,42,13.30
2008,09,23,11,43,13.20
2008,09,23,11,44,13.10
2008,09,23,11,45,13.00
2008,09,23,11,46,12.90
2008,09,23,11,47,12.90
2008,09,23,11,48,12.90
2008,09,23,11,49,12.90
2008,09,23,11,50,12.90
2008,09,23,11,51,12.90
2008,09,23,11,52,12.90
2008,09,23,11,53,12.90
2008,09,23,11,54,12.90
2008,09,23,11,55,12.90
2008,09,23,11,56,13.00
2008,09,23,11,57,13.10
2008,09,23,11,58,13.10
2008,09,23,11,59,13.10
2008,09,23,12,00,13.10
2008,09,23,12,01,13.20
2008,09,23,12,02,13.20
2008,09,23,12,03,13.20
2008,09,23,12,04,13.20
2008,09,23,12,05,13.10
2008,09,23,12,06,13.10
2008,09,23,12,07,13.10
2008,09,23,12,08,13.10
2008,09,23,12,09,13.10
2008,09,23,12,10,13.10
2008,09,23,12,11,13.10
2008,09,23,12,12,13.20
2008,09,23,12,13,13.20
2008,09,23,12,14,13.20
2008,09,23,12,15,13.10
2008,09,23,12,16,13.10
2008,09,23,12,17,13.10
2008,09,23,12,18,13.10
2008,09,23,12,19,13.10
2008,09,23,12,20,13.10
2008,09,23,12,21,13.10
2008,09,23,12,22,13.10
2008,09,23,12,23,13.10
2008,09,23,12,24,13.10
2008,09,23,12,25,13.20
2008,09,23,12,26,13.20
2008,09,23,12,27,13.20
2008,09,23,12,28,13.10
2008,09,23,12,29,13.10
2008,09,23,12,30,13.10
2008,09,23,12,31,13.10
2008,09,23,12,32,13.10
2008,09,23,12,33,13.20
2008,09,23,12,34,13.20
2008,09,23,12,35,13.20
2008,09,23,12,36,13.10
2008,09,23,12,37,13.10
2008,09,23,12,38,13.30
2008,09,23,12,39,13.30
2008,09,23,12,40,13.40
2008,09,23,12,41,13.40
2008,09,23,12,42,13.40
2008,09,23,12,43,13.40
2008,09,23,12,44,13.40
2008,09,23,12,45,13.30
2008,09,23,12,46,13.30
2008,09,23,12,47,13.30
2008,09,23,12,48,13.30
2008,09,23,12,49,13.40
2008,09,23,12,50,13.50
2008,09,23,12,51,13.60
2008,09,23,12,52,13.60
2008,09,23,12,53,13.70
2008,09,23,12,54,13.70
2008,09,23,12,55,13.70
2008,09,23,12,56,13.70
2008,09,23,12,57,13.70
2008,09,23,12,58,13.70
2008,09,23,12,59,13.60
2008,09,23,13,00,13.50
2008,09,23,13,01,13.50
2008,09,23,13,02,13.50
2008,09,23,13,03,13.60
2008,09,23,13,04,13.60
2008,09,23,13,05,13.80
2008,09,23,13,06,13.90
2008,09,23,13,07,14.00
2008,09,23,13,08,14.10
2008,09,23,13,09,14.10
2008,09,23,13,10,14.10
2008,09,23,13,11,14.10
2008,09,23,13,12,14.00
2008,09,23,13,13,13.90
2008,09,23,13,14,13.90
2008,09,23,13,15,13.90
2008,09,23,13,16,13.90
2008,09,23,13,17,13.90
2008,09,23,13,18,13.90
2008,09,23,13,19,13.90
2008,09,23,13,20,13.90
2008,09,23,13,21,13.90
2008,09,23,13,22,13.90
2008,09,23,13,23,13.90
2008,09,23,13,24,13.90
2008,09,23,13,25,13.90
2008,09,23,13,26,14.00
2008,09,23,13,27,14.00
2008,09,23,13,28,14.00
2008,09,23,13,29,14.10
2008,09,23,13,30,14.00
2008,09,23,13,31,14.10
2008,09,23,13,32,14.10
2008,09,23,13,33,14.10
2008,09,23,13,34,14.10
2008,09,23,13,35,14.10
2008,09,23,13,36,14.10
2008,09,23,13,37,14.10
2008,09,23,13,38,14.10
2008,09,23,13,39,14.10
2008,09,23,13,40,14.00
2008,09,23,13,41,14.00
2008,09,23,13,42,14.00
2008,09,23,13,43,14.10
2008,09,23,13,44,14.20
2008,09,23,13,45,14.20
2008,09,23,13,46,14.20
2008,09,23,13,47,14.20
2008,09,23,13,48,14.20
2008,09,23,13,49,14.20
2008,09,23,13,50,14.20
2008,09,23,13,51,14.10
2008,09,23,13,52,14.10
2008,09,23,13,53,14.10
2008,09,23,13,54,14.20
2008,09,23,13,55,14.20
2008,09,23,13,56,14.20
2008,09,23,13,57,14.20
2008,09,23,13,58,14.20
2008,09,23,13,59,14.20
2008,09,23,14,00,14.30
2008,09,23,14,01,14.20
2008,09,23,14,02,14.20
2008,09,23,14,03,14.30
2008,09,23,14,04,14.30
2008,09,23,14,05,14.30
2008,09,23,14,06,14.30
2008,09,23,14,07,14.30
2008,09,23,14,08,14.30
2008,09,23,14,09,14.30
2008,09,23,14,10,14.40
2008,09,23,14,11,14.40
2008,09,23,14,12,14.40
2008,09,23,14,13,14.50
2008,09,23,14,14,14.50
2008,09,23,14,15,14.50
2008,09,23,14,16,14.50
2008,09,23,14,17,14.50
2008,09,23,14,18,14.50
2008,09,23,14,19,14.50
2008,09,23,14,20,14.50
2008,09,23,14,21,14.40
2008,09,23,14,22,14.50
2008,09,23,14,23,14.50
2008,09,23,14,24,14.50
2008,09,23,14,25,14.50
2008,09,23,14,26,14.60
2008,09,23,14,27,14.70
2008,09,23,14,28,14.70
2008,09,23,14,29,14.70
2008,09,23,14,30,14.80
2008,09,23,14,31,14.80
2008,09,23,14,32,14.70
2008,09,23,14,33,14.60
2008,09,23,14,34,14.60
2008,09,23,14,35,14.60
2008,09,23,14,36,14.60
2008,09,23,14,37,14.60
2008,09,23,14,38,14.70
2008,09,23,14,39,14.70
2008,09,23,14,40,14.80
2008,09,23,14,41,14.80
2008,09,23,14,42,14.80
2008,09,23,14,43,14.70
2008,09,23,14,44,14.60
2008,09,23,14,45,14.50
2008,09,23,14,46,14.40
2008,09,23,14,47,14.30
2008,09,23,14,48,14.30
2008,09,23,14,49,14.30
2008,09,23,14,50,14.30
2008,09,23,14,51,14.30
2008,09,23,14,52,14.30
2008,09,23,14,53,14.40
2008,09,23,14,54,14.40
2008,09,23,14,55,14.40
2008,09,23,14,56,14.40
2008,09,23,14,57,14.40
2008,09,23,14,58,14.40
2008,09,23,14,59,14.40
2008,09,23,15,00,14.30
2008,09,23,15,01,14.30
2008,09,23,15,02,14.30
2008,09,23,15,03,14.30
2008,09,23,15,04,14.30
2008,09,23,15,05,14.30
2008,09,23,15,06,14.30
2008,09,23,15,07,14.30
2008,09,23,15,08,14.30
2008,09,23,15,09,14.30
2008,09,23,15,10,14.20
2008,09,23,15,11,14.20
2008,09,23,15,12,14.30
2008,09,23,15,13,14.30
2008,09,23,15,14,14.30
2008,09,23,15,15,14.30
2008,09,23,15,16,14.40
2008,09,23,15,17,14.50
2008,09,23,15,18,14.50
2008,09,23,15,19,14.50
2008,09,23,15,20,14.50
2008,09,23,15,21,14.50
2008,09,23,15,22,14.40
2008,09,23,15,23,14.40
2008,09,23,15,24,14.40
2008,09,23,15,25,14.30
2008,09,23,15,26,14.30
2008,09,23,15,27,14.30
2008,09,23,15,28,14.30
2008,09,23,15,29,14.30
2008,09,23,15,30,14.20
2008,09,23,15,31,14.20
2008,09,23,15,32,14.30
2008,09,23,15,33,14.30
2008,09,23,15,34,14.30
2008,09,23,15,35,14.40
2008,09,23,15,36,14.40
2008,09,23,15,37,14.50
2008,09,23,15,38,14.50
2008,09,23,15,39,14.60
2008,09,23,15,40,14.60
2008,09,23,15,41,14.60
2008,09,23,15,42,14.60
2008,09,23,15,43,14.60
2008,09,23,15,44,14.60
2008,09,23,15,45,14.50
2008,09,23,15,46,14.50
2008,09,23,15,47,14.50
2008,09,23,15,48,14.60
2008,09,23,15,49,14.60
2008,09,23,15,50,14.60
2008,09,23,15,51,14.60
2008,09,23,15,52,14.60
2008,09,23,15,53,14.60
2008,09,23,15,54,14.60
2008,09,23,15,55,14.60
2008,09,23,15,56,14.60
2008,09,23,15,57,14.50
2008,09,23,15,58,14.40
2008,09,23,15,59,14.40
2008,09,23,16,00,14.40
2008,09,23,16,01,14.50
2008,09,23,16,02,14.50
2008,09,23,16,03,14.50
2008,09,23,16,04,14.50
2008,09,23,16,05,14.50
2008,09,23,16,06,14.50
2008,09,23,16,07,14.50
2008,09,23,16,08,14.40
2008,09,23,16,09,14.40
2008,09,23,16,10,14.40
2008,09,23,16,11,14.40
2008,09,23,16,12,14.40
2008,09,23,16,13,14.40
2008,09,23,16,14,14.40
2008,09,23,16,15,14.40
2008,09,23,16,16,14.30
2008,09,23,16,17,14.30
2008,09,23,16,18,14.30
2008,09,23,16,19,14.30
2008,09,23,16,20,14.30
2008,09,23,16,21,14.30
2008,09,23,16,22,14.30
2008,09,23,16,23,14.40
2008,09,23,16,24,14.30
2008,09,23,16,25,14.30
2008,09,23,16,26,14.30
2008,09,23,16,27,14.30
2008,09,23,16,28,14.30
2008,09,23,16,29,14.30
2008,09,23,16,30,14.30
2008,09,23,16,31,14.30
2008,09,23,16,32,14.30
2008,09,23,16,33,14.30
2008,09,23,16,34,14.30
2008,09,23,16,35,14.30
2008,09,23,16,36,14.30
2008,09,23,16,37,14.30
2008,09,23,16,38,14.30
2008,09,23,16,39,14.30
2008,09,23,16,40,14.40
2008,09,23,16,41,14.40
2008,09,23,16,42,14.40
2008,09,23,16,43,14.40
2008,09,23,16,44,14.40
2008,09,23,16,45,14.40
2008,09,23,16,46,14.40
2008,09,23,16,47,14.40
2008,09,23,16,48,14.40
2008,09,23,16,49,14.40
2008,09,23,16,50,14.40
2008,09,23,16,51,14.40
2008,09,23,16,52,14.40
2008,09,23,16,53,14.40
2008,09,23,16,54,14.40
2008,09,23,16,55,14.40
2008,09,23,16,56,14.40
2008,09,23,16,57,14.40
2008,09,23,16,58,14.50
2008,09,23,16,59,14.50
2008,09,23,17,00,14.40
2008,09,23,17,01,14.40
2008,09,23,17,02,14.40
2008,09,23,17,03,14.40
2008,09,23,17,04,14.50
2008,09,23,17,05,14.50
2008,09,23,17,06,14.50
2008,09,23,17,07,14.60
2008,09,23,17,08,14.60
2008,09,23,17,09,14.60
2008,09,23,17,10,14.60
2008,09,23,17,11,14.60
2008,09,23,17,12,14.60
2008,09,23,17,13,14.60
2008,09,23,17,14,14.60
2008,09,23,17,15,14.60
2008,09,23,17,16,14.60
2008,09,23,17,17,14.60
2008,09,23,17,18,14.50
2008,09,23,17,19,14.50
2008,09,23,17,20,14.50
2008,09,23,17,21,14.50
2008,09,23,17,22,14.50
2008,09,23,17,23,14.50
2008,09,23,17,24,14.40
2008,09,23,17,25,14.40
2008,09,23,17,26,14.40
2008,09,23,17,27,14.40
2008,09,23,17,28,14.40
2008,09,23,17,29,14.50
2008,09,23,17,30,14.50
2008,09,23,17,31,14.50
2008,09,23,17,32,14.50
2008,09,23,17,33,14.50
2008,09,23,17,34,14.50
2008,09,23,17,35,14.40
2008,09,23,17,36,14.40
2008,09,23,17,37,14.40
2008,09,23,17,38,14.40
2008,09,23,17,39,14.40
2008,09,23,17,40,14.40
2008,09,23,17,41,14.40
2008,09,23,17,42,14.40
2008,09,23,17,43,14.40